Regional Weather Roundup
Issued by NWS

Home | Current Version | Previous Version | Text Only | Print | Product List | Glossary On
Versions: 1 2 3 4 5 6 7 8 9 10 11 12 13 14 15 16 17 18 19 20 21 22 23 24 25 26 27 28 29 30 31 32 33 34 35 36 37 38 39 40 41 42 43 44 45 46 47 48 49 50
000
ASUS43 KTOP 220259
RWRKS

WEATHER ROUNDUP FOR KANSAS
NATIONAL WEATHER SERVICE GOODLAND KS
900 PM CST SUN DEC 21 2014

NOTE:  "FAIR" INDICATES FEW OR NO CLOUDS BELOW 12,000 FEET WITH NO
SIGNIFICANT WEATHER AND/OR OBSTRUCTIONS TO VISIBILITY.

KSZ001>006-013>018-027>032-041>047-220400-
NORTHWEST KANSAS

CITY           SKY/WX    TMP DP  RH WIND       PRES   REMARKS
GOODLAND       CLOUDY    42  34  73 W14       29.54S
HAYS           CLOUDY    41  34  75 S9        29.59F
HILL CITY      CLOUDY    42  37  82 S12G18    29.55F
RUSSELL        CLOUDY    42  41  96 S14       29.58F
$$

KSZ061>065-074>080-084>089-220400-
SOUTHWEST KANSAS

CITY           SKY/WX    TMP DP  RH WIND       PRES   REMARKS
DODGE CITY     CLOUDY    41  35  79 S14       29.58F
ELKHART          N/A    N/A N/A N/A MISG        N/A
GARDEN CITY    PTCLDY    36  34  92 S8        29.56S
GREAT BEND     CLOUDY    43  37  81 S14       29.61F
LIBERAL        PTCLDY    37  30  75 S7        29.56F
$$

KSZ066>073-081>083-090>101-220400-
SOUTHEAST KANSAS

CITY           SKY/WX    TMP DP  RH WIND       PRES   REMARKS
CHANUTE        CLOUDY    45  40  82 S16G24    29.77F
COFFEYVILLE    CLOUDY    45  40  82 S13       29.78F
HUTCHINSON     CLOUDY    45  42  89 S21       29.66S FOG
MEDICINE LODGE   N/A     44  44 100 S10G18    29.63F
NEWTON         CLOUDY    43  37  81 S22       29.69F
PARSONS        CLOUDY    46  40  79 S12G21    29.78F
WICHITA INTL   CLOUDY    45  42  89 S17G26    29.69S
WICHITA JABRA  CLOUDY    44  42  93 S20G26    29.69F
WICHITA MCCONL CLOUDY    44  42  93 SE18      29.70S
WINFIELD       CLOUDY    45  42  89 S17       29.71F
$$

KSZ007>012-019>026-033>040-048>060-102>105-220400-
NORTHEAST KANSAS

CITY           SKY/WX    TMP DP  RH WIND       PRES   REMARKS
CONCORDIA      CLOUDY    43  43 100 S9        29.64S
EMPORIA        CLOUDY    43  41  93 S16       29.72S
LAWRENCE       CLOUDY    44  40  85 SE13      29.76S
MANHATTAN      CLOUDY    44  43  96 S15G22    29.69S
OLATHE IND     CLOUDY    43  40  89 SE16      29.76F
OLATHE EXE     CLOUDY    43  40  89 SE14G22   29.76F
SALINA         CLOUDY    45  42  89 S13       29.66F FOG
TOPEKA BILLARD CLOUDY    46  42  86 S12       29.74S
TOPEKA FORBES  CLOUDY    46  41  82 S15       29.73S
$$



USA.gov is the U.S. government's official web portal to all federal, state and local government web resources and services.